Bloomington, IN

10:16 PM EST on December 14, 2017 (GMT -0500)
Monroe County

Weather History for KBMG - June, 2012

Change the Weather History Date:

Sunday, June 24, 2012

  Actual Average Record
Temperature  
Mean Temperature 75 °F 73 °F  
Max Temperature 92 °F 84 °F 93 °F (1997)
Min Temperature 58 °F 63 °F 51 °F (2008)
Degree Days  
Heating Degree Days 0 0  
Month to date heating degree days 22 13  
Since 1 June heating degree days 22 13  
Since 1 July heating degree days 4158 5264  
Cooling Degree Days 10 8  
Month to date cooling degree days 158 155  
Year to date cooling degree days 359 237  
Since 1 June cooling degree days 158 155  
Growing Degree Days 24 (Base 50)    
Moisture  
Dew Point 56 °F    
Average Humidity 59    
Maximum Humidity 90    
Minimum Humidity 27    
Precipitation  
Precipitation 0.00 in 0.17 in 0.63 in (2000)
Month to date precipitation 0.20 3.84  
Year to date precipitation 11.95 23.73  
Sea Level Pressure  
Sea Level Pressure 29.96 in    
Wind  
Wind Speed 1 mph (West)    
Max Wind Speed 10 mph    
Max Gust Speed 20 mph    
Visibility 10 miles    
Events      
T = Trace of Precipitation, MM = Missing Value Source: NWS Daily Summary

Daily Weather History Graph

Daily Weather History Graph

Search for Another Location

Airport or City:

Trip Planner

Search our weather history database for the weather conditions in past years. The results will help you decide how hot, cold, wet, or windy it might be!

Date:

Astronomy

Jun. 24, 2012 Rise Set
Actual Time 6:21 AM EDT 9:16 PM EDT
Civil Twilight 5:49 AM EDT 9:48 PM EDT
Nautical Twilight 5:08 AM EDT 10:29 PM EDT
Astronomical Twilight 4:21 AM EDT 11:16 PM EDT
Moon 11:24 AM EDT (6/24) No Moon Set
Length of Visible Light 15h 59m
Length of Day
14h 55m
Waxing Crescent, 24% of the Moon is Illuminated
Jun 24
Waxing Crescent
Jun 26
First Quarter
Jul 3
Full
Jul 10
Last Quarter
Jul 19
New

Hourly Weather History & Observations

Time (EDT) Temp. Heat Index Dew Point Humidity Pressure Visibility Wind Dir Wind Speed Gust Speed Precip Events Conditions
12:53 AM 66.9 °F - 57.9 °F 73% 30.01 in 10.0 mi Calm Calm - N/A   Clear
1:53 AM 63.0 °F - 57.0 °F 81% 29.99 in 10.0 mi Calm Calm - N/A   Clear
2:53 AM 64.9 °F - 57.0 °F 75% 29.99 in 10.0 mi Calm Calm - N/A   Clear
3:53 AM 62.1 °F - 57.9 °F 86% 29.98 in 10.0 mi Calm Calm - N/A   Clear
4:53 AM 60.1 °F - 57.0 °F 90% 29.98 in 10.0 mi Calm Calm - N/A   Clear
5:53 AM 60.1 °F - 55.9 °F 86% 29.98 in 10.0 mi Calm Calm - N/A   Clear
6:53 AM 59.0 °F - 55.9 °F 90% 29.99 in 10.0 mi Calm Calm - N/A   Clear
7:53 AM 66.9 °F - 60.1 °F 79% 29.99 in 10.0 mi Calm Calm - N/A   Clear
8:53 AM 77.0 °F - 57.0 °F 50% 29.99 in 10.0 mi SE 4.6 mph - N/A   Clear
9:53 AM 81.0 °F 80.8 °F 55.9 °F 42% 29.99 in 10.0 mi South 4.6 mph - N/A   Clear
10:53 AM 84.9 °F 83.3 °F 54.0 °F 34% 30.00 in 10.0 mi Calm Calm - N/A   Clear
11:53 AM 86.0 °F 84.0 °F 53.1 °F 32% 30.00 in 10.0 mi Variable 3.5 mph - N/A   Clear
12:53 PM 87.1 °F 85.3 °F 55.0 °F 33% 29.98 in 10.0 mi Variable 3.5 mph - N/A   Clear
1:53 PM 87.1 °F 84.9 °F 53.1 °F 31% 29.99 in 10.0 mi Calm Calm - N/A   Clear
2:53 PM 88.0 °F 86.1 °F 55.0 °F 32% 29.96 in 10.0 mi WNW 5.8 mph - N/A   Clear
3:53 PM 89.1 °F 86.7 °F 53.1 °F 29% 29.95 in 10.0 mi Calm Calm - N/A   Scattered Clouds
4:53 PM 89.1 °F 86.7 °F 53.1 °F 29% 29.92 in 10.0 mi Calm Calm - N/A   Clear
5:53 PM 90.0 °F - 52.0 °F 27% 29.92 in 10.0 mi NW 3.5 mph - N/A   Clear
6:53 PM 88.0 °F - 52.0 °F 29% 29.91 in 10.0 mi Calm Calm - N/A   Clear
7:53 PM 86.0 °F 84.9 °F 57.0 °F 37% 29.90 in 10.0 mi WNW 3.5 mph - N/A   Clear
8:53 PM 78.1 °F - 60.1 °F 54% 29.91 in 10.0 mi Calm Calm - N/A   Clear
9:53 PM 73.0 °F - 60.1 °F 64% 29.90 in 10.0 mi Calm Calm - N/A   Clear
10:53 PM 69.1 °F - 61.0 °F 75% 29.91 in 10.0 mi Calm Calm - N/A   Clear
11:53 PM 70.0 °F - 61.0 °F 73% 29.91 in 10.0 mi Calm Calm - N/A   Mostly Cloudy